Погода в Бугульме

Хотите узнать прогноз погоды в Бугульме? Тогда Вам сюда: Погода в Бугульме

Поиск расширенной информации на нашем сайте:

Полезная информация:

Новости сайта



02.01.2020
Опубликован Долгосрочный прогноз погоды по городам России и ближнего зарубежья на январь 2020 года.
Карты: Прогноз на январь и февраль 2020 года, Сравнение прогнозируемой аномалии приземной температуры воздуха на январь 2020 года по разным моделям.




Погода в Бугульме - сегодня

Время (UTC), дата Ветер
(°,м/с) 
Видим.   Явления Облачность Т
(°С)
Тd
(°С)
f(%) Тe
(°С)
Pmin
(гПа)
dP
(гПа)
Po
(мм)
O2
(г/м3)
Тmin Tmax R s Состояние
почвы
15 27.03.20 330 (СЗ) 20000 м    3/3 600 м 
[Sc]
+5.2 -3.9 52 +5  1029.6  744  295    +7.9       
18 27.03.20 270 (З) 10 км    3/0 средняя 
[Ac trans]
-0.5 -4.5 74 1031.1  0.7  745  301           
21 27.03.20 270 (З) 10 км    3/0 средняя 
[Ac trans]
-2.1 -4.7 82 -2  1031.2  -0.2  744  303           
00 28.03.20 210 (ЮЗ) 10 км    ясно 
-2.6 -4.9 84 -2  1031.5  0.2  745  303           
03 28.03.20 220 (ЮЗ) 20000 м    6/0 верхняя 
[Ci fib]
+0.7 -3.7 72 1031.1  0.1  745  300  -3.2      мокрый или
старый снег
10-40% 
06 28.03.20 250 (З) 20000 м    8/0 средняя, верхняя 
[Ac trans|Ci fib]
+6.2 -2.9 52 +5  1030.6  0.2  745  294           
09 28.03.20 210 (ЮЗ) 20000 м    10/0 средняя, верхняя 
[Ac trans|Ci fib]
+8.4 -1.8 49 +8  1029.3  -1  744  291           
12 28.03.20 210 (ЮЗ) 20000 м    10/3 1000 м верхняя 
[Sc diur, vesp|Ci fib]
+7.9 -1.8 50 +7  1028.1  -1.2  743  291           
15 28.03.20 190 (Ю) 20000 м    6/0 средняя, верхняя 
[Ac trans|Ci fib]
+4.6 -2.5 60 +4  1027.1  -1.4  742  294    +8.6       
18 28.03.20 210 (ЮЗ) 10 км    6/0 средняя, верхняя 
[Ac trans|Ci fib]
+3.4 -2.9 63 +2  1026.2  -1  741  295           
21 28.03.20 210 (ЮЗ) 10 км    4/0 средняя, верхняя 
[Ac trans|Ci fib]
+1.5 -6 57 1025.8  -0.7  741  298           
00 29.03.20 180 (Ю) 10 км    4/0 средняя, верхняя 
[Ac trans|Ci fib]
-1 -5.8 70 -2  1025.2  -0.9  740  300           
03 29.03.20 180 (Ю) 20000 м    8/0 средняя, верхняя 
[Ac trans|Ci fib]
-0.3 -6 65 -1  1024  -1.1  739  299  -1.5      мокрый или
старый снег
10-40% 
06 29.03.20 200 (Ю) 20000 м    3/0 средняя 
[Ac trans]
+7.2 -6.4 37 +6  1021.8  -1.1  739  291           
09 29.03.20 210 (ЮЗ) 20000 м    6/0 средняя, верхняя 
[Ac trans|Ci fib]
+8.3 -5.7 37 +7  1020.3  -1.3  738  289           
12 29.03.20 200 (Ю) 20000 м    10/0 средняя, верхняя 
[Ac trans|Ci fib]
+8.5 -2.4 46 +7  1018.7  -1.5  737  288           
15 29.03.20 150 (ЮВ) 20000 м    10/0 средняя, верхняя 
[Ac trans|Ci fib]
+6.9 -2.6 51 +7  1017.5  -1.4  735  289    +8.8       
18 29.03.20 180 (Ю) 10 км    10/0 средняя, верхняя 
[Ac trans|Ci fib]
+5.2 -1.5 62 +4  1017.3  -0.4  735  291           
21 29.03.20 190 (Ю) 10 км    10/0 средняя, верхняя 
[Ac trans|Ci fib]
+3.6 -1.6 69 +3  1016.3  -1.1  734  292           
00 30.03.20 210 (ЮЗ) 10 км    10/0 средняя, верхняя 
[Ac trans|Ci fib]
+5 -2.9 57 +3  1015.8  -0.4  734  291           
03 30.03.20 210 (ЮЗ) 20000 м    10/0 верхняя 
[Ci fib]
+5 -3.4 55 +2  1015.8  734  291  +2.4      мокрый или
старый снег
10-40% 
06 30.03.20 200 (Ю) 6{10}  20000 м    10/0 верхняя 
[Ci fib]
+8.6 -4.1 40 +7  1015.5  0.3  734  287           
09 30.03.20 190 (Ю) 5{11}  20000 м    10/0 верхняя 
[Ci fib]
+11.5 -4.4 33 +10  1014.5  -0.6  734  284           
12 30.03.20 170 (Ю) 5-10{11}  20000 м    10/0 верхняя 
[Ci fib]
+10.6 -2.9 39 +9  1013.4  -1.1  733  285           
15 30.03.20 160 (Ю) 4{10}  20000 м    10/0 верхняя 
[Ci fib]
+6.5 -3.4 49 +5  1012.7  -1.3  732  288    +11.7       
Время (UTC), дата Ветер
(°,м/с) 
Видим.   Явления Облачность Т
(°С)
Тd
(°С)
f(%) Тe
(°С)
Pmin
(гПа)
dP
(гПа)
Po
(мм)
O2
(г/м3)
Тmin Tmax R s Состояние
почвы

Для получения пояснительной информации подведите курсор к названию столбца.

ПОГОДА в Бугульме - архив

Всё, что Вы хотите узнать о погоде в Бугульме - удобно и подробно!

Выберите нужную дату (начиная с 1 января 2019* года) и нажмите кнопку "Найти".
Будут отображены архивные сводки погоды по пункту Бугульма, начиная с указанной даты.


Отображать данные в формате CSV (для использования в таблицах Excel)


Внимание! Наш архив погоды предназначен исключительно для личного некоммерческого использования в познавательных целях. Если Вам необходимы официальные справки о состоянии погоды (для производственных, юридических, коммерческих и т.п. целей), обращайтесь в органы Росгидромета.

*Примечание: данная дата относится к архиву по метеостанциям СССР (Россия, СНГ, Балтия).
Архив по метеостанциям Зарубежной Европы и Азии (кроме Китая) хранится 10 дней, по другим регионам земного шара (Китай, Африка, Америка, Австралия, Океания) - 1 день.

Бугульма - район местоположения метеостанции


Название, широта, долгота, высота метеостанции:
Бугульма 54.6°ш. 52.8°д. 304 м над ур. моря [Российская Федерация]

Дополнительная информация

В oтличие oт бoльшинства пoгoдных сайтoв мы публикуем пoдрoбную метеoинфoрмацию в детальнoм прoфессиoнальнoм фoрмате.

Характеристики температуры и влажнoсти вoздуха измеряются на высoте 2 м в тени вдали oт зданий и деревьев.
Скoрoсть ветра измеряется на высoте 10 м (на урoвне рoста челoвека скoрoсть ветра ниже в 1.5-2 раза). Если метеoстанция нахoдится в гoрoде или в лесу, тo скoрoсть ветра занижена на 2-4 м/с пo сравнению с oткрытым местoм. Скoрoсть ветра над акватoриями крупных рек и oзёр, а также на вершинах хoлмoв на 2-5 м/с выше, чем в oбычных услoвиях.
Атмoсфернoе давление в разных тoчках местнoсти мoжет значительнo oтличаться oт давления на метеoстанции, в зависимoсти oт услoвий рельефа (при пoдъёме на 10 м давление пoнижается примернo на 1 мм рт.ст.).